[[{"header":{"parameterUnit":"m.s-1","parameterCategory":1,"la1":30.2992,"la2":30.254,"lo1":-89.0895,"lo2":-89.0443,"dy":0.0025,"dx":0.0025,"nx":19,"ny":19,"refTime":"2026-03-23T09:00:00:Z","depth":0,"parameterNumber":2,"parameterNumberName":"U-component_of_WINDS"},"data":[0,0,0,0.4014,0.4011,0.3834,0.3833,0.3613,0.3612,0,0,0,0,0,0,0,0,0,0,0,0.4079,0.4078,0.4015,0.4011,0.3834,0.3833,0.3614,0.3612,0,0,0,0,0,0,0,0,0,0,0,0.4079,0.4078,0.4077,0.401,0.3834,0.3833,0.3614,0.3743,0,0,0,0,0,0,0,0,0,0,0.3913,0.3986,0.4078,0.4077,0.4009,0.3835,0.3833,0.3749,0.3735,0.3699,0,0.3677,0,0.3642,0.3598,0.3597,0,0,0,0.3999,0.3998,0.3941,0.4077,0.4008,0.3835,0.3911,0.3741,0.3725,0.368,0.3674,0.3665,0.3638,0.3597,0.3596,0.3444,0.3443,0,0,0.4009,0.4051,0.3952,0.3931,0.3968,0.3916,0.3905,0.3731,0.3724,0.3673,0.366,0.3634,0.3595,0.3594,0.3444,0.3444,0,0,0,0.4045,0.4058,0.4005,0.3941,0.3909,0.3911,0.3899,0.3731,0.3711,0.3657,0.3632,0.3594,0.3592,0.3444,0.3444,0.3479,0,0,0,0.405,0.4079,0.401,0.4033,0.3913,0.3819,0.3903,0.3723,0.3702,0.3633,0.3594,0.359,0.3444,0.3444,0.3478,0.3486,0,0,0,0.4086,0.4083,0.4063,0.4036,0.3963,0.3821,0.3791,0.3717,0.3687,0.3597,0.3589,0.3444,0.3444,0.3478,0.3485,0.3459,0,0,0,0.4133,0.4092,0.4064,0.4007,0.3965,0.3848,0.3791,0.37,0.3627,0.3593,0.3444,0.3444,0.3478,0.3485,0.3459,0.3444,0.3443,0,0,0.4104,0.409,0.4053,0.4023,0.3923,0.3871,0.3772,0.3662,0.361,0.35,0.3495,0.3478,0.3485,0.3459,0.3423,0.3423,0,0,0,0.4057,0.4031,0.3995,0.3933,0.3853,0.3783,0.3685,0.3643,0.355,0.3565,0.3461,0.3464,0.3446,0.3437,0.3436,0.3417,0.3442,0.3442,0.3442,0.4071,0.4016,0.395,0.3873,0.3812,0.3714,0.3656,0.3582,0.3537,0.3514,0.348,0.3467,0.3458,0.3457,0.3438,0.3469,0.3469,0.3469,0.3469,0.4021,0.3974,0.3923,0.3842,0.378,0.3706,0.3608,0.358,0.3498,0.3487,0.3468,0.3459,0.3458,0.3438,0.3471,0.3471,0.3471,0.3471,0.347,0.4023,0.3991,0.3948,0.3853,0.3784,0.3704,0.3631,0.3575,0.3521,0.3503,0.346,0.3459,0.345,0.3488,0.3488,0.3488,0.3487,0.3487,0.3487,0.4041,0.3992,0.3941,0.3857,0.381,0.374,0.3641,0.359,0.3518,0.3482,0.3482,0.3438,0.3471,0.348,0.3486,0.3486,0.3487,0.3487,0.3487,0.4007,0.4008,0.393,0.3885,0.3779,0.3714,0.3646,0.3547,0.3497,0.3461,0.3422,0.3457,0.3435,0.3435,0.3442,0.3438,0.3438,0.3438,0.3438,0.4008,0.3995,0.3904,0.3834,0.3758,0.369,0.3597,0.3519,0.3436,0.3399,0.3392,0.3396,0.3399,0.3375,0.3376,0.3381,0.3362,0.3362,0.3362,0.3983,0.396,0.3896,0.3825,0.3738,0.3663,0.3573,0.3488,0.3393,0.3358,0.3369,0.3372,0.3378,0.3384,0.3347,0.335,0.3358,0,0]},{"header":{"parameterUnit":"m.s-1","parameterCategory":1,"la1":30.2992,"la2":30.254,"lo1":-89.0895,"lo2":-89.0443,"dy":0.0025,"dx":0.0025,"nx":19,"ny":19,"refTime":"2026-03-23T09:00:00:Z","depth":0,"parameterNumber":3,"parameterNumberName":"V-component_of_WINDS"},"data":[0,0,0,1.2817,1.2823,1.3147,1.3148,1.3518,1.3521,0,0,0,0,0,0,0,0,0,0,0,1.2694,1.2696,1.2816,1.2824,1.3147,1.3148,1.3518,1.3521,0,0,0,0,0,0,0,0,0,0,0,1.2693,1.2695,1.2697,1.2825,1.3146,1.3148,1.3517,1.3289,0,0,0,0,0,0,0,0,0,0,1.2983,1.2843,1.2695,1.2697,1.2827,1.3146,1.3149,1.3279,1.3303,1.3353,0,1.3388,0,1.346,1.3543,1.3544,0,0,0,1.2845,1.2822,1.2933,1.2697,1.2829,1.3145,1.3007,1.3293,1.3321,1.3385,1.3394,1.3409,1.3466,1.3545,1.3547,1.3751,1.3751,0,0,1.2827,1.2739,1.2914,1.2949,1.2895,1.2996,1.3017,1.331,1.3316,1.3395,1.3418,1.3472,1.3547,1.355,1.3751,1.3751,0,0,0,1.2762,1.2725,1.283,1.2933,1.2994,1.3005,1.3029,1.3303,1.3344,1.3423,1.3476,1.3549,1.3553,1.3751,1.3751,1.3659,0,0,0,1.2752,1.2687,1.2821,1.277,1.2988,1.3152,1.3013,1.3323,1.336,1.3474,1.3549,1.3556,1.3752,1.3751,1.3662,1.3631,0,0,0,1.2683,1.268,1.2716,1.2765,1.29,1.315,1.3209,1.3333,1.3391,1.3544,1.3557,1.3752,1.3751,1.3664,1.3636,1.3656,0,0,0,1.2584,1.2635,1.2713,1.2791,1.2897,1.3089,1.3208,1.3357,1.3478,1.3551,1.3752,1.3751,1.3665,1.3639,1.3658,1.3655,1.3646,0,0,1.26,1.2634,1.2687,1.2766,1.292,1.3047,1.319,1.3387,1.3486,1.3657,1.3663,1.3661,1.3636,1.3656,1.3627,1.3619,0,0,0,1.2661,1.2697,1.2758,1.2865,1.3012,1.3136,1.3319,1.3391,1.3539,1.3554,1.3677,1.3665,1.368,1.3683,1.3677,1.3694,1.3749,1.3749,1.3749,1.2559,1.2675,1.2768,1.2921,1.3023,1.3207,1.3301,1.3429,1.3523,1.3548,1.3601,1.3569,1.3569,1.3564,1.358,1.361,1.361,1.3609,1.3609,1.2591,1.266,1.2773,1.2903,1.3025,1.3138,1.3314,1.3374,1.3496,1.3541,1.3561,1.3599,1.3551,1.3572,1.3603,1.3604,1.3605,1.3606,1.3606,1.2537,1.2589,1.2671,1.2832,1.2943,1.3097,1.3205,1.3315,1.3419,1.3438,1.3502,1.3504,1.3518,1.346,1.346,1.346,1.346,1.346,1.346,1.2448,1.2543,1.2619,1.2772,1.2851,1.2969,1.3148,1.323,1.3348,1.3419,1.342,1.3507,1.3525,1.3526,1.3459,1.3459,1.3459,1.3459,1.3459,1.2438,1.2455,1.2572,1.265,1.2835,1.2935,1.307,1.3224,1.3307,1.3356,1.3437,1.3433,1.3478,1.3484,1.3486,1.3413,1.3413,1.3413,1.3413,1.2391,1.2421,1.2562,1.2678,1.2805,1.2935,1.3061,1.3197,1.3342,1.34,1.3426,1.3437,1.3439,1.3483,1.349,1.3493,1.3424,1.3424,1.3424,1.2389,1.2435,1.2522,1.2659,1.2809,1.2935,1.3056,1.3184,1.3353,1.3426,1.3447,1.3446,1.3466,1.3467,1.3543,1.355,1.3559,0,0]}]]